| time (UTC) | temp F | wind direction | speed MPH | gust MPH | rain 1hr in | rain 24hr in | rain mn in | humidity % | barometer mb |
| 20260905090114 | 64 | 293 | 8.0 | 11.0 | 0.00 | 0.39 | 0.00 | 36 | 1014.5 |
| 20260905083114 | 63 | 182 | 5.0 | 14.0 | 0.00 | 0.39 | 0.00 | 39 | 1014.5 |
| 20260905080114 | 64 | 213 | 4.0 | 13.0 | 0.00 | 0.39 | 0.00 | 38 | 1014.5 |
| 20260905070114 | 61 | 251 | 5.0 | 10.0 | 0.00 | 0.39 | 0.00 | 45 | 1013.5 |
| 20260905063114 | 59 | 220 | 5.0 | 10.0 | 0.00 | 0.39 | 0.00 | 47 | 1013.6 |
| 20260905060136 | 58 | 233 | 6.0 | 10.0 | 0.00 | 0.39 | 0.00 | 49 | 1013.6 |
| 20260905053114 | 58 | 206 | 4.0 | 8.0 | 0.00 | 0.39 | 0.00 | 52 | 1013.6 |
| 20260905050134 | 57 | 321 | 5.0 | 8.0 | 0.00 | 0.39 | 0.00 | 54 | 1013.6 |
| 20260905043114 | 58 | 234 | 4.0 | 8.0 | 0.00 | 0.39 | 0.00 | 52 | 1012.6 |
| 20260905040114 | 58 | 240 | 5.0 | 8.0 | 0.00 | 0.39 | 0.00 | 51 | 1012.6 |
| 20260905033114 | 59 | 268 | 4.0 | 8.0 | 0.00 | 0.39 | 0.00 | 51 | 1012.6 |
| 20260905030114 | 59 | 283 | 4.0 | 8.0 | 0.00 | 0.39 | 0.00 | 51 | 1012.6 |
| 20260905023114 | 59 | 290 | 5.0 | 9.0 | 0.00 | 0.39 | 0.00 | 49 | 1012.6 |
| 20260905013114 | 59 | 273 | 4.0 | 10.0 | 0.00 | 0.39 | 0.00 | 49 | 1011.6 |
| 20260905010117 | 59 | 282 | 4.0 | 6.0 | 0.00 | 0.39 | 0.00 | 49 | 1011.6 |
| 20260905003114 | 59 | 203 | 4.0 | 7.0 | 0.00 | 0.39 | 0.00 | 48 | 1011.6 |
| 20260904233114 | 60 | 274 | 5.0 | 8.0 | 0.00 | 0.39 | 0.00 | 46 | 1011.5 |
| 20260904230114 | 61 | 297 | 4.0 | 8.0 | 0.00 | 0.39 | 0.00 | 45 | 1011.5 |
| 20260904223114 | 61 | 301 | 8.0 | 10.0 | 0.00 | 0.39 | 0.00 | 44 | 1010.5 |
| 20260904220114 | 62 | 273 | 10.0 | 15.0 | 0.00 | 0.39 | 0.39 | 44 | 1010.5 |
| 20260904213113 | 62 | 336 | 8.0 | 12.0 | 0.00 | 0.39 | 0.39 | 47 | 1009.5 |
| 20260904203113 | 62 | 286 | 8.0 | 11.0 | 0.00 | 0.39 | 0.39 | 53 | 1009.5 |
| 20260904200113 | 63 | 303 | 9.0 | 13.0 | 0.00 | 0.39 | 0.39 | 51 | 1008.4 |
| 20260904193113 | 63 | 280 | 9.0 | 12.0 | 0.00 | 0.39 | 0.39 | 54 | 1008.4 |
| 20260904190114 | 63 | 276 | 8.0 | 10.0 | 0.00 | 0.39 | 0.39 | 59 | 1008.4 |
| 20260904183113 | 63 | 327 | 8.0 | 10.0 | 0.00 | 0.39 | 0.39 | 62 | 1008.4 |
| 20260904180133 | 64 | 318 | 7.0 | 11.0 | 0.03 | 0.39 | 0.39 | 66 | 1008.4 |
| 20260904170133 | 64 | 324 | 0.0 | 6.0 | 0.15 | 0.36 | 0.36 | 79 | 1006.4 |
| 20260904163113 | 63 | 284 | 5.0 | 9.0 | 0.20 | 0.35 | 0.35 | 78 | 1006.4 |
| 20260904160113 | 63 | 283 | 11.0 | 15.0 | 0.10 | 0.21 | 0.21 | 69 | 1006.4 |
| 20260904153113 | 63 | 301 | 11.0 | 15.0 | 0.08 | 0.15 | 0.15 | 64 | 1006.4 |
| 20260904150113 | 64 | 304 | 8.0 | 14.0 | 0.07 | 0.12 | 0.12 | 58 | 1007.4 |
| 20260904143113 | 65 | 307 | 13.0 | 17.0 | 0.03 | 0.08 | 0.08 | 53 | 1007.4 |
| 20260904140113 | 66 | 304 | 8.0 | 13.0 | 0.05 | 0.05 | 0.05 | 51 | 1006.4 |
| 20260904133113 | 69 | 252 | 9.0 | 15.0 | 0.05 | 0.05 | 0.05 | 42 | 1006.3 |
| 20260904130113 | 76 | 233 | 14.0 | 27.0 | 0.00 | 0.00 | 0.00 | 28 | 1004.1 |
| 20260904123113 | 75 | 292 | 10.0 | 15.0 | 0.00 | 0.00 | 0.00 | 31 | 1004.1 |
| 20260904120113 | 75 | 128 | 11.0 | 14.0 | 0.00 | 0.00 | 0.00 | 32 | 1004.1 |
| 20260904110113 | 73 | 300 | 10.0 | 18.0 | 0.00 | 0.00 | 0.00 | 32 | 1005.2 |
| 20260904103113 | 73 | 259 | 7.0 | 12.0 | 0.00 | 0.00 | 0.00 | 33 | 1006.2 |
| 20260904100114 | 73 | 287 | 11.0 | 15.0 | 0.00 | 0.00 | 0.00 | 33 | 1006.2 |